| time (UTC) | temp F | wind direction | speed MPH | gust MPH | rain 1hr in | rain 24hr in | rain mn in | humidity % | barometer mb |
| 20260510124603 | 52 | 307 | 2.0 | 3.0 | 0.00 | 0.06 | 0.00 | 58 | 1015.6 |
| 20260510124104 | 51 | 284 | 1.0 | 2.0 | 0.00 | 0.06 | 0.00 | 60 | 1015.6 |
| 20260510123603 | 50 | 284 | 1.0 | 3.0 | 0.00 | 0.06 | 0.00 | 62 | 1015.5 |
| 20260510123104 | 50 | 280 | 2.0 | 3.0 | 0.00 | 0.06 | 0.00 | 65 | 1015.5 |
| 20260510122604 | 49 | 338 | 0.0 | 3.0 | 0.00 | 0.06 | 0.00 | 68 | 1015.5 |
| 20260510122103 | 48 | 22 | 0.0 | 2.0 | 0.00 | 0.06 | 0.00 | 71 | 1015.4 |
| 20260510121603 | 47 | 22 | 1.0 | 2.0 | 0.00 | 0.06 | 0.00 | 72 | 1015.4 |
| 20260510121104 | 47 | 22 | 1.0 | 3.0 | 0.00 | 0.06 | 0.00 | 74 | 1015.4 |
| 20260510120603 | 46 | 24 | 1.0 | 3.0 | 0.00 | 0.06 | 0.00 | 75 | 1015.4 |
| 20260510120104 | 45 | 17 | 2.0 | 3.0 | 0.00 | 0.06 | 0.00 | 77 | 1015.4 |
| 20260510115603 | 44 | 350 | 1.0 | 3.0 | 0.00 | 0.06 | 0.00 | 78 | 1015.4 |
| 20260510114604 | 44 | 350 | 1.0 | 2.0 | 0.00 | 0.06 | 0.00 | 77 | 1015.0 |
| 20260510114104 | 43 | 11 | 0.0 | 1.0 | 0.00 | 0.06 | 0.00 | 76 | 1015.0 |
| 20260510113604 | 43 | 11 | 1.0 | 2.0 | 0.00 | 0.06 | 0.00 | 75 | 1015.0 |
| 20260510112604 | 43 | 11 | 0.0 | 0.0 | 0.00 | 0.06 | 0.00 | 73 | 1014.7 |
| 20260510112103 | 43 | 11 | 0.0 | 0.0 | 0.00 | 0.06 | 0.00 | 72 | 1014.5 |
| 20260510111604 | 43 | 11 | 0.0 | 0.0 | 0.00 | 0.06 | 0.00 | 72 | 1014.5 |
| 20260510111104 | 43 | 11 | 0.0 | 0.0 | 0.00 | 0.06 | 0.00 | 71 | 1014.4 |
| 20260510110603 | 43 | 11 | 0.0 | 0.0 | 0.00 | 0.06 | 0.00 | 71 | 1014.4 |
| 20260510110104 | 43 | 11 | 0.0 | 0.0 | 0.00 | 0.06 | 0.00 | 71 | 1014.3 |
| 20260510105603 | 43 | 11 | 0.0 | 0.0 | 0.00 | 0.06 | 0.00 | 71 | 1014.2 |
| 20260510105104 | 43 | 11 | 0.0 | 0.0 | 0.00 | 0.06 | 0.00 | 70 | 1014.1 |
| 20260510104103 | 43 | 11 | 0.0 | 0.0 | 0.00 | 0.06 | 0.00 | 70 | 1013.9 |
| 20260510103603 | 44 | 11 | 0.0 | 0.0 | 0.00 | 0.06 | 0.00 | 69 | 1013.9 |
| 20260510103104 | 44 | 11 | 0.0 | 0.0 | 0.00 | 0.06 | 0.00 | 69 | 1013.9 |
| 20260510102604 | 44 | 11 | 0.0 | 0.0 | 0.00 | 0.06 | 0.00 | 69 | 1013.7 |
| 20260510102104 | 44 | 11 | 0.0 | 0.0 | 0.00 | 0.06 | 0.00 | 69 | 1013.6 |
| 20260510101104 | 45 | 11 | 0.0 | 0.0 | 0.00 | 0.06 | 0.00 | 69 | 1013.6 |
| 20260510100604 | 45 | 11 | 0.0 | 0.0 | 0.00 | 0.06 | 0.00 | 68 | 1013.5 |
| 20260510095104 | 45 | 11 | 0.0 | 0.0 | 0.00 | 0.06 | 0.00 | 67 | 1013.5 |
| 20260510094604 | 46 | 11 | 0.0 | 0.0 | 0.00 | 0.06 | 0.00 | 67 | 1013.5 |
| 20260510094103 | 46 | 11 | 0.0 | 0.0 | 0.00 | 0.06 | 0.00 | 67 | 1013.4 |
| 20260510093603 | 46 | 11 | 0.0 | 0.0 | 0.00 | 0.06 | 0.00 | 67 | 1013.4 |
| 20260510093104 | 46 | 11 | 0.0 | 1.0 | 0.00 | 0.06 | 0.00 | 67 | 1013.4 |
| 20260510092604 | 46 | 11 | 0.0 | 1.0 | 0.00 | 0.06 | 0.00 | 66 | 1013.3 |
| 20260510092104 | 47 | 11 | 0.0 | 0.0 | 0.00 | 0.06 | 0.00 | 66 | 1013.3 |
| 20260510091604 | 47 | 11 | 0.0 | 0.0 | 0.00 | 0.06 | 0.00 | 65 | 1013.2 |
| 20260510091104 | 47 | 11 | 0.0 | 0.0 | 0.00 | 0.06 | 0.00 | 65 | 1013.1 |
| 20260510085605 | 48 | 11 | 0.0 | 0.0 | 0.00 | 0.06 | 0.00 | 65 | 1012.8 |
| 20260510085104 | 48 | 11 | 0.0 | 0.0 | 0.00 | 0.06 | 0.00 | 65 | 1012.7 |
| 20260510084103 | 48 | 11 | 0.0 | 0.0 | 0.00 | 0.06 | 0.00 | 65 | 1012.3 |
| 20260510083604 | 48 | 11 | 0.0 | 0.0 | 0.00 | 0.06 | 0.00 | 65 | 1012.3 |
| 20260510083103 | 49 | 11 | 0.0 | 0.0 | 0.00 | 0.06 | 0.00 | 65 | 1012.1 |
| 20260510082603 | 49 | 11 | 0.0 | 0.0 | 0.00 | 0.06 | 0.00 | 64 | 1011.9 |
| 20260510082104 | 49 | 11 | 0.0 | 2.0 | 0.00 | 0.06 | 0.00 | 64 | 1011.8 |
| 20260510081604 | 49 | 11 | 0.0 | 2.0 | 0.00 | 0.06 | 0.00 | 64 | 1011.7 |
| 20260510081104 | 49 | 11 | 1.0 | 2.0 | 0.00 | 0.06 | 0.00 | 64 | 1011.5 |
| 20260510080604 | 49 | 11 | 1.0 | 2.0 | 0.00 | 0.06 | 0.00 | 64 | 1011.3 |
| 20260510080104 | 49 | 12 | 1.0 | 2.0 | 0.00 | 0.06 | 0.00 | 64 | 1011.2 |
| 20260510075603 | 50 | 12 | 1.0 | 2.0 | 0.00 | 0.06 | 0.00 | 64 | 1011.1 |
| 20260510075104 | 50 | 12 | 0.0 | 1.0 | 0.00 | 0.06 | 0.00 | 64 | 1010.9 |
| 20260510074603 | 50 | 12 | 1.0 | 1.0 | 0.00 | 0.06 | 0.00 | 64 | 1010.7 |
| 20260510074104 | 50 | 12 | 0.0 | 1.0 | 0.00 | 0.06 | 0.00 | 64 | 1010.6 |
| 20260510073604 | 50 | 12 | 1.0 | 2.0 | 0.00 | 0.06 | 0.00 | 64 | 1010.4 |
| 20260510072604 | 50 | 11 | 1.0 | 3.0 | 0.00 | 0.06 | 0.00 | 64 | 1010.1 |
| 20260510072103 | 50 | 21 | 1.0 | 3.0 | 0.00 | 0.06 | 0.00 | 65 | 1010.1 |
| 20260510071604 | 50 | 21 | 1.0 | 3.0 | 0.00 | 0.06 | 0.00 | 65 | 1010.0 |
| 20260510071103 | 51 | 22 | 1.0 | 2.0 | 0.00 | 0.06 | 0.00 | 65 | 1010.0 |
| 20260510070603 | 51 | 22 | 0.0 | 1.0 | 0.00 | 0.06 | 0.00 | 65 | 1010.0 |
| 20260510070104 | 51 | 22 | 0.0 | 1.0 | 0.00 | 0.06 | 0.00 | 65 | 1009.9 |
| 20260510065604 | 51 | 22 | 0.0 | 1.0 | 0.00 | 0.06 | 0.00 | 65 | 1009.7 |
| 20260510065103 | 51 | 22 | 0.0 | 1.0 | 0.00 | 0.06 | 0.00 | 65 | 1009.7 |
| 20260510064604 | 51 | 22 | 1.0 | 2.0 | 0.00 | 0.06 | 0.00 | 64 | 1009.7 |
| 20260510064103 | 52 | 22 | 1.0 | 3.0 | 0.00 | 0.06 | 0.00 | 64 | 1009.6 |
| 20260510063603 | 52 | 22 | 1.0 | 2.0 | 0.00 | 0.06 | 0.00 | 63 | 1009.6 |
| 20260510063104 | 52 | 22 | 0.0 | 0.0 | 0.00 | 0.06 | 0.00 | 62 | 1009.6 |
| 20260510062604 | 52 | 22 | 0.0 | 1.0 | 0.00 | 0.06 | 0.00 | 62 | 1009.7 |
| 20260510062104 | 52 | 22 | 1.0 | 1.0 | 0.00 | 0.06 | 0.00 | 61 | 1009.7 |
| 20260510061604 | 53 | 22 | 0.0 | 1.0 | 0.00 | 0.06 | 0.00 | 61 | 1009.6 |
| 20260510060604 | 53 | 22 | 1.0 | 1.0 | 0.00 | 0.06 | 0.00 | 60 | 1009.6 |
| 20260510055605 | 54 | 22 | 0.0 | 0.0 | 0.00 | 0.06 | 0.00 | 60 | 1009.4 |
| 20260510055106 | 54 | 22 | 0.0 | 0.0 | 0.00 | 0.06 | 0.00 | 60 | 1009.4 |
| 20260510054105 | 54 | 22 | 0.0 | 0.0 | 0.00 | 0.06 | 0.00 | 59 | 1009.3 |
| 20260510053105 | 55 | 22 | 1.0 | 2.0 | 0.00 | 0.06 | 0.00 | 59 | 1009.1 |
| 20260510052605 | 55 | 22 | 1.0 | 2.0 | 0.00 | 0.06 | 0.00 | 58 | 1009.1 |
| 20260510052106 | 55 | 22 | 1.0 | 3.0 | 0.00 | 0.06 | 0.00 | 57 | 1009.0 |
| 20260510051606 | 56 | 11 | 0.0 | 1.0 | 0.00 | 0.06 | 0.00 | 56 | 1009.0 |
| 20260510051105 | 56 | 11 | 0.0 | 2.0 | 0.00 | 0.06 | 0.00 | 55 | 1008.7 |
| 20260510050106 | 57 | 11 | 0.0 | 0.0 | 0.00 | 0.06 | 0.00 | 53 | 1008.5 |
| 20260510045605 | 57 | 11 | 0.0 | 0.0 | 0.00 | 0.06 | 0.00 | 53 | 1008.5 |
| 20260510044606 | 58 | 11 | 0.0 | 0.0 | 0.00 | 0.06 | 0.00 | 52 | 1008.2 |
| 20260510044105 | 58 | 11 | 0.0 | 0.0 | 0.00 | 0.06 | 0.00 | 51 | 1008.1 |
| 20260510043605 | 58 | 11 | 0.0 | 0.0 | 0.00 | 0.06 | 0.00 | 51 | 1008.0 |
| 20260510042605 | 59 | 20 | 1.0 | 3.0 | 0.00 | 0.06 | 0.00 | 49 | 1007.9 |
| 20260510042105 | 59 | 20 | 0.0 | 3.0 | 0.00 | 0.06 | 0.00 | 49 | 1007.9 |
| 20260510041605 | 60 | 20 | 1.0 | 2.0 | 0.00 | 0.06 | 0.00 | 49 | 1007.9 |
| 20260510041106 | 60 | 20 | 1.0 | 2.0 | 0.00 | 0.06 | 0.00 | 48 | 1007.8 |
| 20260510040605 | 60 | 20 | 2.0 | 3.0 | 0.00 | 0.06 | 0.00 | 48 | 1007.8 |
| 20260510040106 | 60 | 319 | 1.0 | 3.0 | 0.00 | 0.06 | 0.00 | 47 | 1007.8 |
| 20260510034605 | 61 | 8 | 2.0 | 5.0 | 0.00 | 0.06 | 0.06 | 46 | 1007.5 |
| 20260510034106 | 61 | 348 | 1.0 | 3.0 | 0.00 | 0.06 | 0.06 | 46 | 1007.4 |
| 20260510033606 | 61 | 0 | 1.0 | 3.0 | 0.00 | 0.06 | 0.06 | 45 | 1007.4 |
| 20260510033105 | 61 | 345 | 2.0 | 3.0 | 0.00 | 0.06 | 0.06 | 45 | 1007.3 |
| 20260510032605 | 61 | 16 | 3.0 | 5.0 | 0.00 | 0.06 | 0.06 | 44 | 1007.2 |
| 20260510032105 | 62 | 344 | 3.0 | 8.0 | 0.00 | 0.06 | 0.06 | 44 | 1007.1 |
| 20260510031605 | 62 | 358 | 4.0 | 9.0 | 0.00 | 0.06 | 0.06 | 44 | 1007.0 |
| 20260510031105 | 62 | 323 | 3.0 | 7.0 | 0.00 | 0.06 | 0.06 | 44 | 1006.9 |
| 20260510030605 | 62 | 316 | 4.0 | 7.0 | 0.00 | 0.06 | 0.06 | 44 | 1006.8 |
| 20260510025605 | 62 | 331 | 3.0 | 6.0 | 0.00 | 0.06 | 0.06 | 47 | 1006.4 |
| 20260510025106 | 62 | 345 | 2.0 | 8.0 | 0.00 | 0.06 | 0.06 | 48 | 1006.3 |
| 20260510024106 | 62 | 344 | 3.0 | 7.0 | 0.00 | 0.06 | 0.06 | 49 | 1006.0 |
| 20260510023605 | 62 | 351 | 3.0 | 9.0 | 0.00 | 0.06 | 0.06 | 51 | 1005.9 |
| 20260510023106 | 62 | 305 | 2.0 | 5.0 | 0.00 | 0.06 | 0.06 | 51 | 1005.8 |
| 20260510022605 | 62 | 345 | 2.0 | 5.0 | 0.00 | 0.06 | 0.06 | 51 | 1005.6 |
| 20260510021605 | 61 | 345 | 3.0 | 5.0 | 0.00 | 0.06 | 0.06 | 52 | 1005.3 |
| 20260510021106 | 62 | 338 | 2.0 | 9.0 | 0.00 | 0.06 | 0.06 | 53 | 1005.2 |
| 20260510020605 | 62 | 11 | 1.0 | 2.0 | 0.00 | 0.06 | 0.06 | 52 | 1005.2 |
| 20260510020106 | 62 | 11 | 0.0 | 0.0 | 0.00 | 0.06 | 0.06 | 50 | 1004.8 |
| 20260510015606 | 63 | 11 | 0.0 | 0.0 | 0.00 | 0.06 | 0.06 | 49 | 1004.7 |
| 20260510015105 | 63 | 11 | 0.0 | 0.0 | 0.00 | 0.06 | 0.06 | 48 | 1004.6 |
| 20260510014605 | 63 | 11 | 0.0 | 0.0 | 0.00 | 0.06 | 0.06 | 47 | 1004.3 |
| 20260510014106 | 64 | 11 | 0.0 | 1.0 | 0.00 | 0.06 | 0.06 | 46 | 1004.2 |
| 20260510013606 | 64 | 11 | 0.0 | 1.0 | 0.00 | 0.06 | 0.06 | 45 | 1004.1 |
| 20260510013105 | 65 | 11 | 0.0 | 0.0 | 0.00 | 0.06 | 0.06 | 44 | 1003.8 |
| 20260510012605 | 65 | 11 | 0.0 | 0.0 | 0.00 | 0.06 | 0.06 | 44 | 1003.7 |
| 20260510012105 | 65 | 11 | 0.0 | 0.0 | 0.00 | 0.06 | 0.06 | 43 | 1003.7 |
| 20260510011605 | 66 | 11 | 0.0 | 0.0 | 0.00 | 0.06 | 0.06 | 43 | 1003.6 |
| 20260510011105 | 66 | 11 | 0.0 | 0.0 | 0.00 | 0.06 | 0.06 | 42 | 1003.5 |
| 20260510010605 | 67 | 11 | 0.0 | 2.0 | 0.00 | 0.06 | 0.06 | 42 | 1003.4 |
| 20260510010106 | 67 | 11 | 1.0 | 2.0 | 0.00 | 0.06 | 0.06 | 41 | 1003.3 |
| 20260510005605 | 67 | 11 | 0.0 | 2.0 | 0.00 | 0.06 | 0.06 | 40 | 1003.2 |
| 20260510005106 | 67 | 11 | 0.0 | 2.0 | 0.00 | 0.06 | 0.06 | 40 | 1003.2 |
| 20260510004605 | 67 | 268 | 1.0 | 3.0 | 0.00 | 0.06 | 0.06 | 39 | 1003.2 |
| 20260510004105 | 68 | 265 | 2.0 | 3.0 | 0.00 | 0.06 | 0.06 | 39 | 1003.2 |
| 20260510003105 | 68 | 282 | 2.0 | 5.0 | 0.00 | 0.06 | 0.06 | 38 | 1003.1 |
| 20260510002605 | 68 | 261 | 1.0 | 3.0 | 0.00 | 0.06 | 0.06 | 37 | 1003.1 |
| 20260510002105 | 68 | 262 | 2.0 | 5.0 | 0.00 | 0.06 | 0.06 | 37 | 1003.1 |
| 20260510001605 | 69 | 256 | 3.0 | 7.0 | 0.00 | 0.06 | 0.06 | 36 | 1003.0 |
| 20260510001105 | 69 | 260 | 3.0 | 6.0 | 0.00 | 0.06 | 0.06 | 36 | 1002.9 |
| 20260510000605 | 69 | 275 | 3.0 | 5.0 | 0.00 | 0.06 | 0.06 | 35 | 1002.8 |
| 20260509235605 | 69 | 239 | 2.0 | 5.0 | 0.00 | 0.06 | 0.06 | 35 | 1002.7 |
| 20260509235105 | 69 | 269 | 3.0 | 7.0 | 0.00 | 0.06 | 0.06 | 34 | 1002.7 |
| 20260509234605 | 70 | 268 | 3.0 | 10.0 | 0.00 | 0.06 | 0.06 | 34 | 1002.7 |
| 20260509234105 | 70 | 292 | 3.0 | 6.0 | 0.00 | 0.06 | 0.06 | 33 | 1002.6 |
| 20260509233605 | 70 | 289 | 3.0 | 9.0 | 0.00 | 0.06 | 0.06 | 33 | 1002.6 |
| 20260509233105 | 70 | 280 | 3.0 | 7.0 | 0.00 | 0.06 | 0.06 | 34 | 1002.6 |
| 20260509232605 | 71 | 193 | 2.0 | 9.0 | 0.00 | 0.06 | 0.06 | 34 | 1002.6 |
| 20260509232105 | 71 | 284 | 3.0 | 13.0 | 0.00 | 0.06 | 0.06 | 33 | 1002.6 |
| 20260509231606 | 71 | 276 | 3.0 | 9.0 | 0.00 | 0.06 | 0.06 | 33 | 1002.6 |
| 20260509231106 | 71 | 303 | 5.0 | 13.0 | 0.00 | 0.06 | 0.06 | 32 | 1002.6 |
| 20260509230606 | 71 | 282 | 7.0 | 14.0 | 0.00 | 0.06 | 0.06 | 32 | 1002.6 |
| 20260509225605 | 71 | 325 | 7.0 | 17.0 | 0.00 | 0.06 | 0.06 | 32 | 1002.4 |
| 20260509225105 | 71 | 277 | 5.0 | 18.0 | 0.00 | 0.06 | 0.06 | 33 | 1002.5 |
| 20260509224605 | 71 | 252 | 11.0 | 22.0 | 0.00 | 0.06 | 0.06 | 32 | 1002.5 |
| 20260509224105 | 72 | 271 | 9.0 | 20.0 | 0.00 | 0.06 | 0.06 | 32 | 1002.1 |
| 20260509223605 | 72 | 278 | 9.0 | 18.0 | 0.00 | 0.06 | 0.06 | 33 | 1002.1 |
| 20260509223105 | 72 | 277 | 9.0 | 26.0 | 0.00 | 0.06 | 0.06 | 32 | 1002.0 |
| 20260509222605 | 72 | 290 | 12.0 | 20.0 | 0.00 | 0.06 | 0.06 | 33 | 1002.0 |
| 20260509221605 | 72 | 254 | 9.0 | 18.0 | 0.00 | 0.06 | 0.06 | 37 | 1001.5 |
| 20260509221105 | 72 | 264 | 10.0 | 17.0 | 0.00 | 0.06 | 0.06 | 40 | 1001.5 |
| 20260509220605 | 71 | 247 | 7.0 | 16.0 | 0.00 | 0.06 | 0.06 | 44 | 1001.4 |
| 20260509220105 | 71 | 246 | 6.0 | 16.0 | 0.00 | 0.06 | 0.06 | 40 | 1001.2 |
| 20260509215605 | 72 | 254 | 13.0 | 23.0 | 0.00 | 0.06 | 0.06 | 41 | 1001.5 |
| 20260509215105 | 72 | 267 | 6.0 | 12.0 | 0.00 | 0.06 | 0.06 | 43 | 1001.1 |
| 20260509214605 | 72 | 265 | 6.0 | 16.0 | 0.00 | 0.06 | 0.06 | 44 | 1001.0 |
| 20260509213105 | 72 | 201 | 5.0 | 12.0 | 0.00 | 0.06 | 0.06 | 46 | 1001.1 |
| 20260509212605 | 72 | 258 | 1.0 | 6.0 | 0.00 | 0.06 | 0.06 | 46 | 1001.0 |
| 20260509212105 | 72 | 262 | 0.0 | 0.0 | 0.00 | 0.06 | 0.06 | 47 | 1001.1 |
| 20260509211605 | 71 | 231 | 0.0 | 0.0 | 0.00 | 0.06 | 0.06 | 49 | 1001.1 |
| 20260509211105 | 71 | 272 | 0.0 | 0.0 | 0.00 | 0.06 | 0.06 | 51 | 1001.1 |
| 20260509210105 | 70 | 340 | 0.0 | 0.0 | 0.00 | 0.06 | 0.06 | 56 | 1001.1 |
| 20260509205605 | 70 | 233 | 0.0 | 0.0 | 0.00 | 0.06 | 0.06 | 58 | 1001.1 |
| 20260509204105 | 67 | 271 | 0.0 | 0.0 | 0.00 | 0.06 | 0.06 | 66 | 1001.4 |
| 20260509203605 | 67 | 258 | 0.0 | 0.0 | 0.00 | 0.06 | 0.06 | 67 | 1001.4 |
| 20260509203105 | 66 | 325 | 0.0 | 0.0 | 0.00 | 0.06 | 0.06 | 66 | 1001.5 |
| 20260509202605 | 66 | 298 | 0.0 | 0.0 | 0.00 | 0.06 | 0.06 | 66 | 1001.5 |
| 20260509202105 | 66 | 318 | 0.0 | 0.0 | 0.00 | 0.06 | 0.06 | 66 | 1001.5 |
| 20260509201605 | 66 | 283 | 0.0 | 0.0 | 0.00 | 0.06 | 0.06 | 65 | 1001.5 |
| 20260509201106 | 66 | 291 | 0.0 | 0.0 | 0.01 | 0.06 | 0.06 | 65 | 1001.5 |
| 20260509195605 | 67 | 316 | 0.0 | 0.0 | 0.06 | 0.06 | 0.06 | 61 | 1001.5 |
| 20260509195105 | 67 | 300 | 0.0 | 0.0 | 0.06 | 0.06 | 0.06 | 61 | 1001.5 |
| 20260509194605 | 68 | 336 | 0.0 | 0.0 | 0.06 | 0.06 | 0.06 | 62 | 1001.5 |
| 20260509194105 | 68 | 274 | 0.0 | 0.0 | 0.06 | 0.06 | 0.06 | 64 | 1001.2 |
| 20260509193605 | 67 | 252 | 0.0 | 0.0 | 0.06 | 0.06 | 0.06 | 66 | 1001.0 |
| 20260509193105 | 66 | 249 | 0.0 | 0.0 | 0.06 | 0.06 | 0.06 | 68 | 1001.0 |
| 20260509192605 | 66 | 223 | 0.0 | 0.0 | 0.06 | 0.06 | 0.06 | 69 | 1001.0 |
| 20260509192105 | 66 | 276 | 0.0 | 0.0 | 0.06 | 0.06 | 0.06 | 69 | 1001.1 |
| 20260509191605 | 67 | 224 | 0.0 | 0.0 | 0.06 | 0.06 | 0.06 | 67 | 1001.5 |
| 20260509191105 | 68 | 267 | 0.0 | 0.0 | 0.05 | 0.05 | 0.05 | 64 | 1001.5 |
| 20260509190605 | 69 | 295 | 0.0 | 0.0 | 0.04 | 0.04 | 0.04 | 61 | 1001.5 |
| 20260509190106 | 70 | 304 | 0.0 | 0.0 | 0.02 | 0.02 | 0.02 | 58 | 1001.2 |
| 20260509185605 | 71 | 214 | 1.0 | 12.0 | 0.00 | 0.00 | 0.00 | 51 | 1001.0 |
| 20260509185105 | 71 | 229 | 8.0 | 21.0 | 0.00 | 0.00 | 0.00 | 47 | 1000.9 |
| 20260509184605 | 72 | 243 | 9.0 | 16.0 | 0.00 | 0.00 | 0.00 | 46 | 1000.9 |
| 20260509184105 | 72 | 226 | 7.0 | 17.0 | 0.00 | 0.00 | 0.00 | 47 | 1001.0 |
| 20260509183605 | 72 | 245 | 6.0 | 20.0 | 0.00 | 0.00 | 0.00 | 46 | 1001.3 |
| 20260509183105 | 72 | 233 | 5.0 | 20.0 | 0.00 | 0.00 | 0.00 | 48 | 1001.1 |
| 20260509182605 | 72 | 197 | 10.0 | 20.0 | 0.00 | 0.00 | 0.00 | 47 | 1001.4 |
| 20260509182105 | 71 | 224 | 8.0 | 14.0 | 0.00 | 0.00 | 0.00 | 49 | 1001.2 |
| 20260509181604 | 71 | 219 | 6.0 | 15.0 | 0.00 | 0.00 | 0.00 | 50 | 1001.4 |
| 20260509181105 | 71 | 222 | 8.0 | 16.0 | 0.00 | 0.00 | 0.00 | 50 | 1001.5 |
| 20260509180605 | 70 | 249 | 6.0 | 15.0 | 0.00 | 0.00 | 0.00 | 50 | 1001.6 |
| 20260509180104 | 70 | 212 | 7.0 | 15.0 | 0.00 | 0.00 | 0.00 | 49 | 1001.6 |
| 20260509175605 | 70 | 218 | 0.0 | 0.0 | 0.00 | 0.00 | 0.00 | 49 | 1001.7 |
| 20260509175105 | 70 | 219 | 0.0 | 0.0 | 0.00 | 0.00 | 0.00 | 50 | 1001.7 |
| 20260509174105 | 69 | 194 | 0.0 | 0.0 | 0.00 | 0.00 | 0.00 | 53 | 1001.8 |
| 20260509173605 | 69 | 228 | 0.0 | 0.0 | 0.00 | 0.00 | 0.00 | 51 | 1001.9 |
| 20260509173105 | 69 | 222 | 0.0 | 0.0 | 0.00 | 0.00 | 0.00 | 52 | 1001.8 |
| 20260509172105 | 69 | 221 | 0.0 | 0.0 | 0.00 | 0.00 | 0.00 | 53 | 1001.9 |
| 20260509171604 | 68 | 227 | 0.0 | 0.0 | 0.00 | 0.00 | 0.00 | 54 | 1002.0 |
| 20260509171105 | 68 | 192 | 0.0 | 0.0 | 0.00 | 0.00 | 0.00 | 54 | 1002.1 |
| 20260509165605 | 68 | 226 | 0.0 | 0.0 | 0.00 | 0.00 | 0.00 | 54 | 1002.1 |
| 20260509165105 | 67 | 221 | 0.0 | 0.0 | 0.00 | 0.00 | 0.00 | 55 | 1002.1 |
| 20260509164604 | 67 | 237 | 0.0 | 0.0 | 0.00 | 0.00 | 0.00 | 55 | 1002.1 |
| 20260509164105 | 67 | 214 | 0.0 | 0.0 | 0.00 | 0.00 | 0.00 | 58 | 1002.2 |
| 20260509163605 | 67 | 219 | 0.0 | 0.0 | 0.00 | 0.00 | 0.00 | 58 | 1002.2 |
| 20260509163105 | 66 | 225 | 0.0 | 0.0 | 0.00 | 0.00 | 0.00 | 58 | 1002.2 |
| 20260509162105 | 67 | 223 | 0.0 | 0.0 | 0.00 | 0.00 | 0.00 | 57 | 1002.4 |
| 20260509161605 | 67 | 185 | 0.0 | 0.0 | 0.00 | 0.00 | 0.00 | 59 | 1002.4 |
| 20260509161105 | 67 | 223 | 0.0 | 0.0 | 0.00 | 0.00 | 0.00 | 61 | 1002.3 |
| 20260509160105 | 66 | 226 | 0.0 | 0.0 | 0.00 | 0.00 | 0.00 | 62 | 1002.5 |
| 20260509155605 | 66 | 229 | 0.0 | 0.0 | 0.00 | 0.00 | 0.00 | 61 | 1002.6 |
| 20260509154605 | 65 | 240 | 0.0 | 0.0 | 0.00 | 0.00 | 0.00 | 64 | 1002.6 |
| 20260509154105 | 65 | 225 | 0.0 | 0.0 | 0.00 | 0.00 | 0.00 | 67 | 1002.6 |
| 20260509153605 | 65 | 201 | 0.0 | 0.0 | 0.00 | 0.00 | 0.00 | 68 | 1002.6 |
| 20260509153107 | 65 | 223 | 0.0 | 0.0 | 0.00 | 0.00 | 0.00 | 68 | 1002.6 |
| 20260509152605 | 64 | 178 | 0.0 | 0.0 | 0.00 | 0.00 | 0.00 | 69 | 1002.7 |
| 20260509152106 | 64 | 222 | 0.0 | 0.0 | 0.00 | 0.00 | 0.00 | 70 | 1002.8 |
| 20260509151605 | 64 | 234 | 0.0 | 0.0 | 0.00 | 0.00 | 0.00 | 71 | 1002.8 |
| 20260509151104 | 64 | 225 | 0.0 | 0.0 | 0.00 | 0.00 | 0.00 | 70 | 1003.0 |
| 20260509150605 | 64 | 217 | 0.0 | 0.0 | 0.00 | 0.00 | 0.00 | 70 | 1003.0 |
| 20260509150105 | 64 | 201 | 0.0 | 0.0 | 0.00 | 0.00 | 0.00 | 70 | 1003.1 |
| 20260509145605 | 64 | 208 | 0.0 | 0.0 | 0.00 | 0.00 | 0.00 | 70 | 1003.2 |
| 20260509144604 | 64 | 179 | 0.0 | 0.0 | 0.00 | 0.00 | 0.00 | 73 | 1003.2 |
| 20260509143605 | 62 | 197 | 0.0 | 0.0 | 0.00 | 0.00 | 0.00 | 75 | 1003.3 |
| 20260509142605 | 61 | 238 | 0.0 | 0.0 | 0.00 | 0.00 | 0.00 | 78 | 1003.5 |
| 20260509142105 | 61 | 222 | 0.0 | 0.0 | 0.00 | 0.00 | 0.00 | 79 | 1003.4 |
| 20260509141604 | 61 | 232 | 0.0 | 0.0 | 0.00 | 0.00 | 0.00 | 81 | 1003.6 |
| 20260509141105 | 60 | 205 | 0.0 | 0.0 | 0.00 | 0.00 | 0.00 | 83 | 1003.8 |
| 20260509140604 | 60 | 198 | 0.0 | 0.0 | 0.00 | 0.00 | 0.00 | 84 | 1003.8 |
| 20260509140105 | 59 | 209 | 0.0 | 0.0 | 0.00 | 0.00 | 0.00 | 85 | 1003.9 |
| 20260509135605 | 59 | 203 | 0.0 | 0.0 | 0.00 | 0.00 | 0.00 | 87 | 1004.0 |
| 20260509135104 | 59 | 212 | 0.0 | 0.0 | 0.00 | 0.00 | 0.00 | 88 | 1003.9 |
| 20260509134605 | 58 | 236 | 0.0 | 0.0 | 0.00 | 0.00 | 0.00 | 89 | 1004.0 |
| 20260509133605 | 58 | 210 | 0.0 | 0.0 | 0.00 | 0.00 | 0.00 | 90 | 1004.0 |
| 20260509133104 | 57 | 205 | 0.0 | 0.0 | 0.00 | 0.00 | 0.00 | 91 | 1004.1 |
| 20260509132605 | 57 | 199 | 0.0 | 0.0 | 0.00 | 0.00 | 0.00 | 92 | 1004.2 |
| 20260509132104 | 56 | 236 | 0.0 | 0.0 | 0.00 | 0.00 | 0.00 | 92 | 1004.3 |
| 20260509131605 | 56 | 242 | 0.0 | 0.0 | 0.00 | 0.00 | 0.00 | 92 | 1004.3 |
| 20260509131105 | 56 | 237 | 0.0 | 0.0 | 0.00 | 0.00 | 0.00 | 92 | 1004.3 |
| 20260509130606 | 56 | 254 | 0.0 | 0.0 | 0.00 | 0.00 | 0.00 | 92 | 1004.3 |
| 20260509125604 | 55 | 225 | 0.0 | 0.0 | 0.00 | 0.00 | 0.00 | 92 | 1004.3 |
| 20260509125104 | 55 | 183 | 0.0 | 0.0 | 0.00 | 0.00 | 0.00 | 93 | 1004.3 |